Location: Gloden
(48.4833°N, 15.3167°E)
Time: 00:50:17
(UTC+00:00)

SAR-Lupe-2 - Pass Details

Date: 15 December 2019
Orbit: 482 x 484 km, 98.1° (Epoch: 18 January)

Event Time Altitude Azimuth Distance (km) Brightness Sun altitude
Rises 05:33:36 0° 157° (SSE) 2,539 8.0 -10.9°
Reaches altitude 10° 05:35:40 10° 154° (SSE) 1,663 7.0 -10.6°
Maximum altitude 05:39:12 64° 73° (ENE) 541 4.0 -10.1°
Drops below altitude 10° 05:42:46 10° 352° (N) 1,677 6.0 -9.6°
Sets 05:44:51 0° 349° (N) 2,562 6.9 -9.2°
Enters shadow 05:44:56 - 349° (N) 2,601 6.9 -9.2°
